User: anonymous   Login
Location: Oshawa
(43.9000°N, 78.8670°W)
Time: 08:22:35
(UTC-04:00)
Language:

CZ-4C R/B - Orbit

View from above orbital plane
View from above orbital plane
View from above satellite
View from above satellite

Ground track
Ground track

The orbit data is extracted from the following two-line orbital elements,

1 32290U 07055B   17267.23606453  .00003480  00000-0  97097-4 0  9996
2 32290  97.5372  15.8080 0067362 138.2229 222.4185 15.35183632547012
Epoch (UTC): 24 September 2017 05:39:55
Eccentricity: 0.0067362
inclination: 97.5372°
perigee height: 414 km
apogee height: 506 km
right ascension of ascending node: 15.8080°
argument of perigee: 138.2229°
revolutions per day: 15.35183632
mean anomaly at epoch: 222.4185°
orbit number at epoch: 54701

The dashed part of the orbit path shows where the satellite is in the earth's shadow,  

DLR